This is the latest recevied weather packets stored in our database for station/object OE6PLD-13. If no packets are shown the sender has not sent any weather packets the latest 10 day(s).
| Time | Temp. | Humidity | Pressure | Rain* | Wind** | Luminosity | Snow |
|---|---|---|---|---|---|---|---|
| 1777356242 | 10.56° C | 74% | 1012.7 hPa | 0.76 mm | - | 153 W/m² | - |
| 1777356059 | 10° C | 73% | 1012.8 hPa | 0.76 mm | - | 212 W/m² | - |
| 1777355876 | 10° C | 75% | 1012.9 hPa | 0.76 mm | - | 149 W/m² | - |
| 1777355692 | 10° C | 76% | 1012.7 hPa | 0.76 mm | - | 118 W/m² | - |
| 1777355509 | 10° C | 75% | 1012.8 hPa | 0.76 mm | - | 120 W/m² | - |
| 1777355326 | 9.44° C | 75% | 1012.6 hPa | 0.76 mm | - | 121 W/m² | - |
| 1777355142 | 9.44° C | 76% | 1012.8 hPa | 0.76 mm | - | 107 W/m² | - |
| 1777354959 | 9.44° C | 77% | 1012.6 hPa | 0.76 mm | - | 106 W/m² | - |
| 1777354776 | 9.44° C | 77% | 1012.8 hPa | 0.76 mm | - | 107 W/m² | - |
| 1777354592 | 8.89° C | 77% | 1012.8 hPa | 0.76 mm | - | 104 W/m² | - |
| 1777354409 | 8.89° C | 78% | 1012.7 hPa | 0.76 mm | - | 110 W/m² | - |
| 1777354226 | 8.89° C | 79% | 1012.7 hPa | 0.76 mm | - | 137 W/m² | - |
| 1777354042 | 8.89° C | 80% | 1012.9 hPa | 0.76 mm | - | 130 W/m² | - |
| 1777353859 | 8.33° C | 80% | 1012.7 hPa | 0.76 mm | - | 136 W/m² | - |
| 1777353675 | 8.33° C | 81% | 1012.7 hPa | 0.76 mm | - | 107 W/m² | - |
| 1777353492 | 8.33° C | 82% | 1012.7 hPa | 0.76 mm | - | 96 W/m² | - |
| 1777353309 | 7.78° C | 82% | 1012.5 hPa | 0.76 mm | - | 94 W/m² | - |
| 1777353125 | 7.78° C | 82% | 1012.8 hPa | 0.76 mm | - | 86 W/m² | - |
| 1777352942 | 7.78° C | 83% | 1012.7 hPa | 0.76 mm | - | 90 W/m² | - |
| 1777352759 | 7.78° C | 83% | 1012.6 hPa | 0.76 mm | - | 77 W/m² | - |
| 1777352575 | 7.22° C | 84% | 1012.6 hPa | 0.76 mm | - | 70 W/m² | - |
| 1777352392 | 7.22° C | 84% | 1012.6 hPa | 0.76 mm | - | 65 W/m² | - |
| 1777352209 | 6.67° C | 85% | 1012.6 hPa | 0.76 mm | - | 64 W/m² | - |
| 1777352025 | 6.67° C | 85% | 1012.7 hPa | 0.76 mm | - | 56 W/m² | - |
| 1777351842 | 6.67° C | 85% | 1012.6 hPa | 0.76 mm | - | 57 W/m² | - |
* Rain latest hour (hover to see other rain measurements)
** Current wind speed in m/s (hover to see current wind gust speed)